IRIDIUM 33 DEB, 35680

Orbit data source: Space-Track

IRIDIUM 33 DEB, 35680 is space debris in LEO originally from a launch on Sun, 14 Sep 1997 UTC launched from the Tyuratam Missile And Space Complex (TTMTR). The debris from Iridium 33, an American commercial communications satellite, has been tracked extensively since its accidental collision with the defunct Russian satellite Cosmos 2251 in 2009. This event, occurring at high speed in low Earth orbit (LEO), generated thousands of pieces of space debris, significantly increasing the risk of further collisions. The Iridium 33 debris cloud has impacted space traffic management and orbital debris mitigation strategies, making it a subject of ongoing study in space situational awareness.

Loading next visibility...
Identifier
35680, 1997-051RJ
Orbit
LEO
Country
Flag of USUS
Related business
Manufacturer
Unknown
Mission
Spacecraft
Bus & Motor
Unknown
Mass
Unknown
Launch date (UTC)
1997-09-14 (29 years ago)
Launch vehicle
Unknown
Launch site
Tyuratam Missile And Space Complex (TTMTR)
Object type
Payload
Rocket body
Debris
Shape & HBR
Unknown shape, 0.1 m
Radar Cross Section
Small (<0.1 m²)

Expand to show TLE details & history
Last TLE update: 2 days ago

TLE from 2 days ago
0 IRIDIUM 33 DEB
1 35680U 97051RJ  26261.27031514  .00002356  00000-0  91579-3 0  9994
2 35680  86.0996 257.4358 0149382 108.2129 311.7295 14.23491173646757
Epoch: 2026-09-18T06:29Z
TLE epoch observation values (Epoch: 2026-09-18T06:29:15.228Z)
Latitude
58.52856°
Longitude
169.28749°
Altitude
752.922 km
Speed
7.52 km/s
True Right ascension
17h 35m 11s
True Declination
58° 22' 30"
Sunlit
Object was in daylight at epoch
Visualization orbit readout
Latitude
Unknown
Longitude
Unknown
Altitude
Unknown
Speed
Unknown
Apparent Right ascension
Unknown
Apparent Declination
Unknown
Sunlit
N/A
Visualization observer readout
Local Sidereal Time
03:47:47
Azimuth
Unknown
Elevation
Unknown
Doppler factor
Unknown
Orbital elements
Apogee altitude
917.941 km
Perigee altitude
703.169 km
Semi-major axis
7,188.692 km
Eccentricity
0.01494
Inclination
86.0996°
RAAN
257.4358°
Arg. of periapsis
108.2129°
True anomaly
310.43604°
Mean anomaly
311.7295°
Eccentric anomaly
311.08437°
Mean motion
3.56097 °/min
Orbital period
101.1 mins
BSTAR
0.00091579
Loading maneuver chart data...
Computing Atmospheric mass density...

Documentation

Showing up to 5 results
|